User: anonymous   Login
Location: Larrial
(48.2758°N, 4.5331°W)
Time: 06:15:28
(UTC+00:00)
Language:

First-Move - Orbit

View from above orbital plane
View from above orbital plane
View from above satellite
View from above satellite

Ground track
Ground track

The orbit data is extracted from the following two-line orbital elements,

1 39439U 13066Z   21338.94639626  .00001329  00000-0  16457-3 0  9997
2 39439  97.6166 316.4820 0063445 320.3115  39.3465 14.82965356433218
Epoch (UTC): 04 December 2021 22:42:48
Eccentricity: 0.0063445
inclination: 97.6166°
perigee height: 575 km
apogee height: 664 km
right ascension of ascending node: 316.4820°
argument of perigee: 320.3115°
revolutions per day: 14.82965356
mean anomaly at epoch: 39.3465°
orbit number at epoch: 43321

The dashed part of the orbit path shows where the satellite is in the earth's shadow,  

DLR